SWA3193 KMCO-KRSW

Flight info

Callsign SWA3193
Flight time 0h 34m
Altitude 20000
Route FSHUN4 FSHUN SHFTY SHFTY6
Aircraft B738/M-SDE2E3FGHIRWXY/LB1

Departure

Time 2026-04-24 00:39
Airport Orlando International Airport (KMCO)

Arrival

Time 2026-04-24 01:13
Airport Southwest Florida International Airport (KRSW)
Time Latitude Longitude Altitude Speed Heading
2026-04-23 23:43 28.43485 -81.30235 104 ft 0 kts 29°
2026-04-24 00:21 28.43481 -81.30238 104 ft 2 kts 29°
2026-04-24 00:21 28.43468 -81.30246 104 ft 2 kts 28°
2026-04-24 00:22 28.43455 -81.30254 104 ft 2 kts 29°
2026-04-24 00:22 28.43442 -81.30263 104 ft 2 kts 29°
2026-04-24 00:22 28.43429 -81.30270 104 ft 2 kts 29°
2026-04-24 00:22 28.43416 -81.30280 104 ft 2 kts 50°
2026-04-24 00:23 28.43408 -81.30295 104 ft 2 kts 71°
2026-04-24 00:23 28.43406 -81.30312 104 ft 2 kts 95°
2026-04-24 00:23 28.43410 -81.30328 104 ft 2 kts 118°
2026-04-24 00:23 28.43418 -81.30343 104 ft 2 kts 122°
2026-04-24 00:24 28.43426 -81.30357 104 ft 2 kts 121°
2026-04-24 00:24 28.43434 -81.30372 104 ft 2 kts 121°
2026-04-24 00:24 28.43441 -81.30386 104 ft 2 kts 121°
2026-04-24 00:24 28.43449 -81.30401 104 ft 2 kts 123°
2026-04-24 00:25 28.43457 -81.30415 104 ft 2 kts 124°
2026-04-24 00:25 28.43466 -81.30429 104 ft 2 kts 125°
2026-04-24 00:25 28.43475 -81.30443 104 ft 2 kts 133°
2026-04-24 00:25 28.43486 -81.30454 104 ft 2 kts 141°
2026-04-24 00:26 28.43498 -81.30464 104 ft 2 kts 148°
2026-04-24 00:26 28.43512 -81.30473 104 ft 2 kts 156°
2026-04-24 00:26 28.43526 -81.30479 104 ft 2 kts 164°
2026-04-24 00:26 28.43541 -81.30482 104 ft 2 kts 172°
2026-04-24 00:27 28.43556 -81.30484 104 ft 2 kts 179°
2026-04-24 00:27 28.43571 -81.30483 104 ft 2 kts 187°
2026-04-24 00:27 28.43586 -81.30480 104 ft 2 kts 195°
2026-04-24 00:27 28.43600 -81.30475 104 ft 2 kts 203°
2026-04-24 00:28 28.43613 -81.30468 104 ft 2 kts 211°
2026-04-24 00:28 28.43626 -81.30458 104 ft 2 kts 218°
2026-04-24 00:28 28.43637 -81.30447 104 ft 2 kts 226°
2026-04-24 00:28 28.43647 -81.30434 104 ft 2 kts 234°
2026-04-24 00:29 28.43656 -81.30420 104 ft 2 kts 232°
2026-04-24 00:29 28.43665 -81.30407 104 ft 2 kts 257°
2026-04-24 00:29 28.43663 -81.30390 104 ft 2 kts 305°
2026-04-24 00:29 28.43651 -81.30381 104 ft 2 kts 351°
2026-04-24 00:30 28.43636 -81.30383 104 ft 1 kts 37°
2026-04-24 00:30 28.43632 -81.30389 104 ft 1 kts 54°
2026-04-24 00:30 28.43630 -81.30393 104 ft 0 kts 49°
2026-04-24 00:32 28.43630 -81.30392 104 ft 0 kts 49°
2026-04-24 00:32 28.43648 -81.30368 104 ft 8 kts 47°
2026-04-24 00:32 28.43717 -81.30318 104 ft 14 kts 22°
2026-04-24 00:33 28.43819 -81.30273 104 ft 16 kts 21°
2026-04-24 00:33 28.43911 -81.30320 104 ft 19 kts 279°
2026-04-24 00:33 28.43920 -81.30487 106 ft 21 kts 273°
2026-04-24 00:33 28.43930 -81.30665 120 ft 22 kts 274°
2026-04-24 00:34 28.43941 -81.30866 120 ft 29 kts 272°
2026-04-24 00:34 28.43942 -81.31081 120 ft 25 kts 266°
2026-04-24 00:34 28.43933 -81.31273 116 ft 24 kts 267°
2026-04-24 00:34 28.43924 -81.31484 104 ft 27 kts 268°
2026-04-24 00:35 28.43920 -81.31688 104 ft 25 kts 269°
2026-04-24 00:35 28.43925 -81.31856 104 ft 17 kts 284°
2026-04-24 00:35 28.43975 -81.31974 104 ft 15 kts 308°
2026-04-24 00:35 28.44073 -81.32005 104 ft 16 kts 360°
2026-04-24 00:36 28.44211 -81.32004 104 ft 22 kts 359°
2026-04-24 00:36 28.44390 -81.32007 104 ft 28 kts
2026-04-24 00:36 28.44561 -81.32011 104 ft 19 kts 360°
2026-04-24 00:36 28.44684 -81.32018 104 ft 16 kts 330°
2026-04-24 00:37 28.44714 -81.32101 104 ft 1 kts 275°
2026-04-24 00:37 28.44715 -81.32134 104 ft 6 kts 269°
2026-04-24 00:37 28.44714 -81.32156 104 ft 0 kts 269°
2026-04-24 00:37 28.44714 -81.32168 104 ft 4 kts 269°
2026-04-24 00:38 28.44706 -81.32218 104 ft 8 kts 213°
2026-04-24 00:38 28.44639 -81.32230 104 ft 6 kts 180°
2026-04-24 00:38 28.44523 -81.32227 104 ft 42 kts 180°
2026-04-24 00:38 28.43986 -81.32217 104 ft 111 kts 179°
2026-04-24 00:39 28.42979 -81.32216 184 ft 166 kts 176°
2026-04-24 00:39 28.41841 -81.32233 986 ft 166 kts 176°
2026-04-24 00:39 28.40712 -81.32263 1670 ft 167 kts 178°
2026-04-24 00:39 28.39530 -81.32328 2156 ft 173 kts 181°
2026-04-24 00:40 28.38364 -81.32509 2795 ft 168 kts 182°
2026-04-24 00:40 28.37169 -81.32534 3188 ft 178 kts 174°
2026-04-24 00:40 28.35902 -81.32484 3686 ft 184 kts 175°
2026-04-24 00:40 28.34611 -81.32496 4163 ft 190 kts 179°
2026-04-24 00:41 28.33312 -81.32608 4841 ft 185 kts 180°
2026-04-24 00:41 28.31989 -81.32621 5191 ft 197 kts 174°
2026-04-24 00:41 28.30578 -81.32519 5545 ft 212 kts 174°
2026-04-24 00:41 28.29066 -81.32413 5982 ft 223 kts 175°
2026-04-24 00:42 28.27463 -81.32330 6406 ft 236 kts 175°
2026-04-24 00:42 28.25826 -81.32234 6983 ft 242 kts 176°
2026-04-24 00:42 28.24037 -81.32167 7263 ft 264 kts 178°
2026-04-24 00:42 28.22159 -81.32311 7787 ft 277 kts 195°
2026-04-24 00:43 28.20411 -81.33193 8527 ft 282 kts 210°
2026-04-24 00:43 28.18715 -81.34352 9308 ft 286 kts 211°
2026-04-24 00:43 28.16996 -81.35504 10119 ft 290 kts 210°
2026-04-24 00:43 28.15198 -81.36636 10645 ft 303 kts 208°
2026-04-24 00:44 28.13303 -81.37775 11011 ft 319 kts 208°
2026-04-24 00:44 28.11293 -81.38957 11433 ft 332 kts 208°
2026-04-24 00:44 28.09226 -81.40167 12062 ft 337 kts 208°
2026-04-24 00:44 28.07124 -81.41399 12762 ft 342 kts 208°
2026-04-24 00:45 28.04993 -81.42651 13516 ft 347 kts 208°
2026-04-24 00:45 28.02846 -81.43915 14260 ft 352 kts 208°
2026-04-24 00:45 28.00667 -81.45199 15016 ft 357 kts 209°
2026-04-24 00:45 27.98471 -81.46491 15840 ft 359 kts 209°
2026-04-24 00:46 27.96234 -81.47810 16610 ft 362 kts 209°
2026-04-24 00:46 27.94035 -81.49159 17330 ft 364 kts 212°
2026-04-24 00:46 27.91939 -81.50738 18048 ft 366 kts 220°
2026-04-24 00:46 27.89988 -81.52638 18743 ft 368 kts 226°
2026-04-24 00:47 27.88210 -81.54675 19421 ft 370 kts 229°
2026-04-24 00:47 27.86432 -81.56861 19701 ft 376 kts 230°
2026-04-24 00:47 27.84719 -81.59021 19938 ft 370 kts 230°
2026-04-24 00:47 27.82978 -81.61228 20059 ft 378 kts 231°
2026-04-24 00:48 27.81234 -81.63432 20057 ft 381 kts 230°
2026-04-24 00:48 27.79448 -81.65673 20057 ft 387 kts 230°
2026-04-24 00:48 27.77616 -81.67964 19981 ft 403 kts 230°
2026-04-24 00:48 27.75706 -81.70337 19654 ft 408 kts 229°
2026-04-24 00:49 27.73737 -81.72570 19314 ft 402 kts 224°
2026-04-24 00:49 27.71513 -81.74405 19092 ft 391 kts 211°
2026-04-24 00:49 27.69025 -81.75569 19054 ft 377 kts 198°
2026-04-24 00:49 27.66513 -81.76181 19061 ft 371 kts 191°
2026-04-24 00:50 27.63906 -81.76486 19057 ft 380 kts 186°
2026-04-24 00:50 27.61260 -81.76464 19058 ft 389 kts 177°
2026-04-24 00:50 27.58578 -81.75880 19051 ft 390 kts 166°
2026-04-24 00:50 27.56047 -81.74882 19056 ft 382 kts 160°
2026-04-24 00:51 27.53550 -81.73714 19054 ft 387 kts 159°
2026-04-24 00:51 27.51090 -81.72494 19055 ft 384 kts 158°
2026-04-24 00:51 27.48674 -81.71275 19055 ft 383 kts 158°
2026-04-24 00:51 27.46233 -81.70056 19054 ft 385 kts 158°
2026-04-24 00:52 27.43754 -81.68835 19054 ft 387 kts 158°
2026-04-24 00:52 27.41268 -81.67624 18866 ft 393 kts 158°
2026-04-24 00:52 27.38748 -81.66402 18511 ft 387 kts 158°
2026-04-24 00:52 27.36302 -81.65219 18038 ft 383 kts 159°
2026-04-24 00:53 27.33866 -81.64044 17483 ft 381 kts 158°
2026-04-24 00:53 27.31439 -81.62877 16944 ft 380 kts 158°
2026-04-24 00:53 27.28887 -81.61654 16412 ft 416 kts 158°
2026-04-24 00:53 27.26096 -81.60319 15816 ft 451 kts 158°
2026-04-24 00:54 27.23208 -81.58935 15575 ft 447 kts 158°
2026-04-24 00:54 27.20438 -81.57599 15029 ft 425 kts 158°
2026-04-24 00:54 27.17760 -81.56306 14381 ft 406 kts 158°
2026-04-24 00:54 27.15213 -81.55077 13793 ft 389 kts 158°
2026-04-24 00:55 27.12804 -81.53915 13278 ft 372 kts 158°
2026-04-24 00:55 27.10461 -81.52788 12817 ft 355 kts 158°
2026-04-24 00:55 27.08255 -81.51727 12295 ft 344 kts 158°
2026-04-24 00:55 27.06082 -81.50684 11744 ft 338 kts 158°
2026-04-24 00:56 27.03921 -81.49647 11164 ft 335 kts 158°
2026-04-24 00:56 27.01771 -81.48616 10614 ft 333 kts 158°
2026-04-24 00:56 26.99678 -81.47605 10086 ft 330 kts 157°
2026-04-24 00:56 26.97593 -81.46571 9633 ft 323 kts 157°
2026-04-24 00:57 26.95588 -81.45573 9369 ft 305 kts 156°
2026-04-24 00:57 26.93715 -81.44614 9129 ft 289 kts 156°
2026-04-24 00:57 26.90161 -81.42767 8665 ft 277 kts 157°
2026-04-24 00:58 26.88384 -81.41893 8448 ft 277 kts 156°
2026-04-24 00:58 26.86634 -81.41022 8203 ft 275 kts 156°
2026-04-24 00:58 26.84905 -81.40179 7983 ft 273 kts 156°
2026-04-24 00:58 26.83135 -81.39409 7805 ft 273 kts 162°
2026-04-24 00:59 26.81249 -81.38993 7542 ft 279 kts 177°
2026-04-24 00:59 26.79304 -81.39110 7238 ft 277 kts 186°
2026-04-24 00:59 26.77446 -81.39461 6972 ft 268 kts 189°
2026-04-24 00:59 26.75627 -81.39690 6702 ft 258 kts 180°
2026-04-24 01:00 26.73853 -81.39584 6473 ft 250 kts 172°
2026-04-24 01:00 26.72148 -81.39359 6218 ft 242 kts 173°
2026-04-24 01:00 26.70494 -81.39338 5975 ft 238 kts 186°
2026-04-24 01:00 26.68866 -81.39677 5740 ft 234 kts 188°
2026-04-24 01:01 26.67241 -81.39885 5473 ft 232 kts 186°
2026-04-24 01:01 26.65729 -81.40412 5201 ft 232 kts 211°
2026-04-24 01:01 26.64552 -81.41648 4979 ft 231 kts 238°
2026-04-24 01:01 26.63935 -81.43283 4751 ft 231 kts 251°
2026-04-24 01:02 26.63316 -81.44930 4449 ft 226 kts 236°
2026-04-24 01:02 26.62393 -81.46307 4174 ft 217 kts 228°
2026-04-24 01:02 26.61431 -81.47656 3994 ft 224 kts 231°
2026-04-24 01:02 26.60539 -81.49050 3970 ft 214 kts 230°
2026-04-24 01:03 26.59656 -81.50339 4017 ft 211 kts 226°
2026-04-24 01:03 26.58587 -81.51568 4054 ft 238 kts 223°
2026-04-24 01:03 26.57559 -81.53051 4011 ft 245 kts 233°
2026-04-24 01:03 26.56710 -81.54674 4007 ft 234 kts 237°
2026-04-24 01:04 26.55845 -81.56199 4009 ft 235 kts 236°
2026-04-24 01:04 26.54929 -81.57739 3989 ft 235 kts 234°
2026-04-24 01:04 26.54076 -81.59220 3992 ft 225 kts 236°
2026-04-24 01:04 26.53256 -81.60654 3996 ft 213 kts 232°
2026-04-24 01:05 26.52338 -81.61977 4026 ft 219 kts 227°
2026-04-24 01:05 26.51329 -81.63332 4018 ft 233 kts 230°
2026-04-24 01:05 26.50339 -81.64828 4022 ft 248 kts 232°
2026-04-24 01:05 26.49336 -81.66453 4002 ft 257 kts 232°
2026-04-24 01:06 26.48302 -81.68095 3995 ft 261 kts 231°
2026-04-24 01:06 26.47228 -81.69709 3989 ft 257 kts 230°
2026-04-24 01:06 26.46153 -81.71288 3990 ft 250 kts 231°
2026-04-24 01:06 26.45136 -81.72819 3981 ft 241 kts 232°
2026-04-24 01:07 26.44187 -81.74283 3976 ft 223 kts 231°
2026-04-24 01:07 26.43307 -81.75613 4001 ft 206 kts 230°
2026-04-24 01:07 26.42473 -81.76854 4003 ft 203 kts 231°
2026-04-24 01:07 26.41603 -81.78179 4011 ft 220 kts 231°
2026-04-24 01:08 26.40741 -81.79511 3992 ft 217 kts 231°
2026-04-24 01:08 26.39957 -81.80933 3876 ft 214 kts 244°
2026-04-24 01:08 26.39687 -81.82549 3558 ft 215 kts 273°
2026-04-24 01:08 26.40072 -81.84132 3291 ft 209 kts 292°
2026-04-24 01:09 26.40723 -81.85526 3046 ft 202 kts 306°
2026-04-24 01:09 26.41740 -81.86525 2821 ft 192 kts 335°
2026-04-24 01:09 26.42978 -81.87020 2624 ft 185 kts 350°
2026-04-24 01:09 26.44198 -81.87221 2458 ft 178 kts
2026-04-24 01:10 26.45314 -81.86945 2403 ft 159 kts 28°
2026-04-24 01:10 26.46268 -81.86388 2310 ft 151 kts 38°
2026-04-24 01:10 26.47079 -81.85671 2198 ft 141 kts 52°
2026-04-24 01:10 26.47633 -81.84813 1887 ft 138 kts 62°
2026-04-24 01:11 26.48170 -81.83926 1594 ft 136 kts 59°
2026-04-24 01:11 26.48727 -81.83062 1446 ft 138 kts 60°
2026-04-24 01:11 26.49296 -81.82189 1316 ft 138 kts 56°
2026-04-24 01:11 26.49878 -81.81325 1137 ft 141 kts 56°
2026-04-24 01:12 26.50481 -81.80460 970 ft 143 kts 54°
2026-04-24 01:12 26.51113 -81.79594 784 ft 144 kts 56°
2026-04-24 01:12 26.51706 -81.78689 433 ft 148 kts 58°
2026-04-24 01:12 26.52235 -81.77763 237 ft 135 kts 67°
2026-04-24 01:13 26.52746 -81.76870 59 ft 138 kts 58°
2026-04-24 01:13 26.53242 -81.76087 28 ft 97 kts 59°
2026-04-24 01:13 26.53518 -81.75665 28 ft 47 kts 54°
2026-04-24 01:13 26.53704 -81.75372 28 ft 34 kts 54°
2026-04-24 01:14 26.53780 -81.75226 28 ft 17 kts 76°
2026-04-24 01:14 26.53777 -81.75153 28 ft 4 kts 141°
2026-04-24 01:14 26.53753 -81.75148 28 ft 2 kts 177°
2026-04-24 01:14 26.53742 -81.75150 28 ft 1 kts 193°
2026-04-24 01:15 26.53704 -81.75180 28 ft 12 kts 230°
2026-04-24 01:15 26.53630 -81.75292 28 ft 20 kts 234°
2026-04-24 01:15 26.53549 -81.75417 28 ft 19 kts 234°
2026-04-24 01:15 26.53456 -81.75479 28 ft 16 kts 158°
2026-04-24 01:16 26.53361 -81.75410 28 ft 15 kts 145°
2026-04-24 01:16 26.53274 -81.75339 28 ft 15 kts 148°
2026-04-24 01:16 26.53174 -81.75333 28 ft 14 kts 189°
2026-04-24 01:16 26.53077 -81.75349 28 ft 14 kts 188°
2026-04-24 01:17 26.52983 -81.75367 28 ft 13 kts 189°
2026-04-24 01:17 26.52914 -81.75385 28 ft 5 kts 239°
2026-04-24 01:17 26.52911 -81.75428 28 ft 5 kts 279°
2026-04-24 01:17 26.52914 -81.75447 28 ft 0 kts 278°